Weather in Granada

Nicaragua     11°55′59″N   85°57′51″W
temp.,
°C
wind,
m/s
gust,
m/s
humid.,
%
clouds,
%
prec.,
mm/h
press.,
hPa
HPBL,
m
23 october, sat
sat2300:00+23s1194100 3.0 101116
03:00+23w0095100 0.1 101016
06:00+22w1196100 1.3 101225
09:00+27ne137810 0.0 1013558
12:00+29e346911 0.8 10101010
15:00+28se367918 1.8 1008613
18:00+24s229169 2.3 100934
21:00+24sse119199 0.2 101218
24 october, sun
sun2400:00+23sse1194100 0.4 101121
03:00+23n009679 0.1 101016
06:00+23ene00955 0.1 101220
09:00+27ene24765 0.0 1013680
12:00+29ese347035 0.6 10111040
15:00+28ese3575100 0.8 1009682
18:00+25sse229198 1.2 101135
21:00+24sse1193100 1.2 101422
25 october, mon
mon2500:00+23se119513 1.3 101319
03:00+23ene0096100 0.1 101217
06:00+23se0195100 0.1 101423
09:00+27e2380100 0.0 1015496
12:00+29e347460 0.9 1012972
15:00+27ese3684100 2.7 1010504
18:00+25sse229227 3.4 101138
21:00+24ese239481 2.3 101467
26 october, tue
tue2600:00+23e119539 2.5 101329
03:00+23e119747 0.1 101222
06:00+23ene009774 0.1 101427
09:00+26ne248370 0.3 1015366
12:00+30e3564100 0.4 10111288
15:00+29ese357175 0.3 1009791
18:00+25sse22915 1.3 101031
21:00+24s11944 0.7 101220
27 october, wed
wed2700:00+23s11955 0.8 101119
03:00+22sse01965 0.0 101119
06:00+22s019713 0.0 101221
09:00+27e237818 0.0 1014663
12:00+29e2364100 0.0 10111090
15:00+29ese22657 0.0 1009692
18:00+24ssw228530 0.0 101022
21:00+23wsw118531 0.0 101217